Вернуться в каталог

STARLINK-3344

АктивенСвязьVLEO
NORAD 51110·PAYLOAD·🇺🇸 United States

Запущен Jan 19, 2022 с Cape Canaveral Space Force Station

Loading…

Ближайшие Пролёты (ближайшие 24 часа)

TLE

СвежийSource: CelesTrak SupGP

Эпоха: Sep 14, 2026, 20:54 UTC

1 51110C 22005G   26257.87131944 -.00030205  00000+0 -89303-3 0  2570
2 51110  53.1583 151.9617 0001027  77.4128 352.9611 15.34383906    14

Отслеживайте STARLINK-3344 в реальном времени с AllMySat

Download on the App Store